| time (UTC) | temp C | wind direction | speed KPH | gust KPH | rain 1hr cm | rain 24hr cm | rain mn cm | humidity % | barometer mb |
| 20260506000504 | 8 | 294 | 9.7 | 11.3 | 0.00 | 0.05 | 0.05 | 84 | 1015.3 |
| 20260506000003 | 8 | 301 | 9.7 | 16.1 | 0.00 | 0.05 | 0.05 | 83 | 1015.4 |
| 20260505235004 | 8 | 293 | 8.0 | 12.9 | 0.00 | 0.05 | 0.05 | 82 | 1015.4 |
| 20260505234504 | 8 | 273 | 8.0 | 12.9 | 0.00 | 0.05 | 0.05 | 82 | 1015.4 |
| 20260505234003 | 8 | 307 | 6.4 | 16.1 | 0.00 | 0.05 | 0.05 | 82 | 1015.4 |
| 20260505233503 | 8 | 294 | 8.0 | 11.3 | 0.00 | 0.05 | 0.05 | 83 | 1015.5 |
| 20260505233004 | 8 | 276 | 12.9 | 11.3 | 0.00 | 0.05 | 0.05 | 83 | 1015.5 |
| 20260505232503 | 8 | 285 | 12.9 | 19.3 | 0.00 | 0.05 | 0.05 | 83 | 1015.5 |
| 20260505232003 | 8 | 296 | 12.9 | 20.9 | 0.00 | 0.05 | 0.05 | 83 | 1015.5 |
| 20260505231503 | 8 | 286 | 9.7 | 24.1 | 0.00 | 0.05 | 0.05 | 81 | 1015.6 |
| 20260505230503 | 9 | 289 | 6.4 | 14.5 | 0.00 | 0.05 | 0.05 | 80 | 1015.5 |
| 20260505230004 | 8 | 282 | 6.4 | 14.5 | 0.00 | 0.05 | 0.05 | 81 | 1015.5 |
| 20260505225503 | 8 | 304 | 8.0 | 12.9 | 0.00 | 0.05 | 0.05 | 81 | 1015.5 |
| 20260505225004 | 8 | 304 | 9.7 | 9.7 | 0.00 | 0.05 | 0.05 | 81 | 1015.6 |
| 20260505224503 | 8 | 284 | 8.0 | 14.5 | 0.00 | 0.05 | 0.05 | 87 | 1015.5 |
| 20260505223503 | 8 | 304 | 11.3 | 6.4 | 0.00 | 0.05 | 0.05 | 86 | 1015.8 |
| 20260505222504 | 8 | 307 | 4.8 | 20.9 | 0.00 | 0.05 | 0.05 | 87 | 1015.8 |
| 20260505222003 | 8 | 293 | 4.8 | 9.7 | 0.00 | 0.05 | 0.05 | 87 | 1015.7 |
| 20260505221504 | 8 | 310 | 6.4 | 6.4 | 0.00 | 0.05 | 0.05 | 87 | 1015.8 |
| 20260505221004 | 8 | 306 | 6.4 | 11.3 | 0.00 | 0.05 | 0.05 | 87 | 1015.8 |
| 20260505220503 | 8 | 307 | 8.0 | 17.7 | 0.00 | 0.05 | 0.05 | 86 | 1015.7 |
| 20260505220004 | 8 | 299 | 8.0 | 17.7 | 0.00 | 0.05 | 0.05 | 87 | 1015.8 |
| 20260505215503 | 8 | 297 | 4.8 | 16.1 | 0.00 | 0.05 | 0.05 | 87 | 1015.8 |
| 20260505215003 | 8 | 290 | 4.8 | 12.9 | 0.00 | 0.05 | 0.05 | 87 | 1015.8 |
| 20260505214503 | 8 | 293 | 4.8 | 6.4 | 0.00 | 0.05 | 0.05 | 88 | 1015.8 |
| 20260505214004 | 8 | 294 | 4.8 | 11.3 | 0.00 | 0.05 | 0.05 | 88 | 1015.9 |
| 20260505213503 | 8 | 315 | 4.8 | 8.0 | 0.00 | 0.05 | 0.05 | 88 | 1015.9 |
| 20260505213004 | 7 | 281 | 4.8 | 12.9 | 0.00 | 0.05 | 0.05 | 89 | 1016.0 |
| 20260505212502 | 7 | 302 | 6.4 | 4.8 | 0.00 | 0.05 | 0.05 | 89 | 1015.9 |
| 20260505212002 | 7 | 289 | 6.4 | 9.7 | 0.00 | 0.05 | 0.05 | 89 | 1016.0 |
| 20260505211502 | 7 | 321 | 8.0 | 12.9 | 0.00 | 0.05 | 0.05 | 89 | 1016.0 |
| 20260505210502 | 7 | 314 | 9.7 | 12.9 | 0.00 | 0.05 | 0.05 | 89 | 1016.0 |
| 20260505210003 | 7 | 288 | 8.0 | 16.1 | 0.00 | 0.05 | 0.05 | 88 | 1016.0 |
| 20260505205502 | 7 | 287 | 8.0 | 17.7 | 0.00 | 0.05 | 0.05 | 89 | 1015.9 |
| 20260505204502 | 7 | 295 | 9.7 | 14.5 | 0.00 | 0.05 | 0.05 | 89 | 1015.9 |
| 20260505204002 | 8 | 312 | 8.0 | 17.7 | 0.00 | 0.05 | 0.05 | 89 | 1015.9 |
| 20260505203503 | 8 | 312 | 8.0 | 16.1 | 0.00 | 0.05 | 0.05 | 88 | 1015.9 |
| 20260505202502 | 7 | 310 | 3.2 | 11.3 | 0.00 | 0.05 | 0.05 | 88 | 1015.8 |
| 20260505201002 | 7 | 257 | 9.7 | 12.9 | 0.00 | 0.05 | 0.05 | 87 | 1015.9 |
| 20260505200502 | 8 | 254 | 9.7 | 19.3 | 0.00 | 0.05 | 0.05 | 87 | 1015.8 |
| 20260505195503 | 8 | 251 | 11.3 | 20.9 | 0.00 | 0.05 | 0.05 | 88 | 1015.8 |
| 20260505195002 | 8 | 281 | 9.7 | 20.9 | 0.00 | 0.05 | 0.05 | 88 | 1015.8 |
| 20260505194502 | 7 | 278 | 9.7 | 9.7 | 0.00 | 0.05 | 0.05 | 90 | 1015.9 |
| 20260505194002 | 7 | 309 | 9.7 | 22.5 | 0.00 | 0.05 | 0.05 | 90 | 1015.9 |
| 20260505193503 | 7 | 317 | 4.8 | 24.1 | 0.00 | 0.05 | 0.05 | 91 | 1015.9 |
| 20260505193002 | 7 | 318 | 3.2 | 16.1 | 0.00 | 0.05 | 0.05 | 91 | 1016.0 |
| 20260505192502 | 7 | 295 | 3.2 | 12.9 | 0.00 | 0.05 | 0.05 | 91 | 1015.9 |
| 20260505192002 | 7 | 250 | 6.4 | 4.8 | 0.00 | 0.05 | 0.05 | 91 | 1015.8 |
| 20260505190502 | 7 | 251 | 14.5 | 20.9 | 0.00 | 0.05 | 0.05 | 91 | 1015.7 |
| 20260505190003 | 7 | 252 | 11.3 | 25.7 | 0.00 | 0.05 | 0.05 | 92 | 1015.6 |
| 20260505185502 | 7 | 261 | 12.9 | 20.9 | 0.00 | 0.05 | 0.05 | 92 | 1015.6 |
| 20260505185003 | 7 | 235 | 14.5 | 16.1 | 0.00 | 0.05 | 0.05 | 93 | 1015.7 |
| 20260505184503 | 7 | 252 | 11.3 | 24.1 | 0.00 | 0.05 | 0.05 | 94 | 1015.6 |
| 20260505184002 | 7 | 262 | 8.0 | 19.3 | 0.00 | 0.05 | 0.05 | 93 | 1015.5 |
| 20260505183503 | 7 | 292 | 8.0 | 12.9 | 0.00 | 0.05 | 0.05 | 94 | 1015.6 |
| 20260505183003 | 7 | 301 | 8.0 | 17.7 | 0.00 | 0.05 | 0.05 | 94 | 1015.6 |
| 20260505182502 | 7 | 294 | 9.7 | 14.5 | 0.00 | 0.05 | 0.05 | 93 | 1015.5 |
| 20260505182003 | 7 | 298 | 9.7 | 20.9 | 0.00 | 0.05 | 0.05 | 93 | 1015.5 |
| 20260505181502 | 7 | 277 | 8.0 | 20.9 | 0.00 | 0.05 | 0.05 | 94 | 1015.5 |
| 20260505181002 | 7 | 293 | 6.4 | 12.9 | 0.00 | 0.05 | 0.05 | 94 | 1015.4 |
| 20260505180503 | 7 | 308 | 6.4 | 8.0 | 0.00 | 0.05 | 0.05 | 94 | 1015.4 |
| 20260505175003 | 6 | 294 | 6.4 | 8.0 | 0.00 | 0.05 | 0.05 | 94 | 1015.2 |
| 20260505174002 | 6 | 317 | 6.4 | 12.9 | 0.00 | 0.05 | 0.05 | 94 | 1015.2 |
| 20260505173502 | 7 | 280 | 4.8 | 14.5 | 0.03 | 0.05 | 0.05 | 94 | 1015.1 |
| 20260505173003 | 6 | 291 | 3.2 | 14.5 | 0.03 | 0.05 | 0.05 | 94 | 1015.1 |
| 20260505172502 | 7 | 296 | 4.8 | 4.8 | 0.03 | 0.05 | 0.05 | 94 | 1015.1 |
| 20260505172003 | 6 | 281 | 3.2 | 6.4 | 0.03 | 0.05 | 0.05 | 94 | 1015.0 |
| 20260505171502 | 6 | 307 | 6.4 | 12.9 | 0.03 | 0.05 | 0.05 | 94 | 1015.0 |
| 20260505171002 | 6 | 270 | 6.4 | 9.7 | 0.03 | 0.05 | 0.05 | 94 | 1015.0 |
| 20260505170503 | 6 | 256 | 4.8 | 20.9 | 0.03 | 0.05 | 0.05 | 94 | 1014.9 |
| 20260505170002 | 6 | 309 | 4.8 | 9.7 | 0.03 | 0.05 | 0.05 | 94 | 1014.9 |
| 20260505165502 | 6 | 291 | 3.2 | 11.3 | 0.03 | 0.05 | 0.05 | 94 | 1014.8 |
| 20260505165002 | 6 | 294 | 1.6 | 6.4 | 0.03 | 0.05 | 0.05 | 94 | 1014.8 |
| 20260505164502 | 6 | 299 | 1.6 | 3.2 | 0.03 | 0.05 | 0.05 | 94 | 1014.8 |
| 20260505163503 | 6 | 322 | 0.0 | 1.6 | 0.00 | 0.03 | 0.03 | 94 | 1014.7 |
| 20260505163002 | 6 | 0 | 0.0 | 0.0 | 0.00 | 0.03 | 0.03 | 94 | 1014.6 |
| 20260505162002 | 6 | 295 | 1.6 | 1.6 | 0.00 | 0.03 | 0.03 | 94 | 1014.5 |
| 20260505161503 | 6 | 314 | 0.0 | 3.2 | 0.00 | 0.03 | 0.03 | 94 | 1014.4 |
| 20260505161002 | 6 | 0 | 1.6 | 0.0 | 0.00 | 0.03 | 0.03 | 94 | 1014.2 |
| 20260505160503 | 6 | 263 | 1.6 | 3.2 | 0.00 | 0.03 | 0.03 | 94 | 1014.1 |
| 20260505152502 | 6 | 309 | 3.2 | 6.4 | 0.00 | 0.03 | 0.03 | 94 | 1014.0 |
| 20260505152002 | 6 | 313 | 3.2 | 8.0 | 0.00 | 0.03 | 0.03 | 94 | 1014.0 |
| 20260505151502 | 6 | 308 | 1.6 | 8.0 | 0.00 | 0.03 | 0.03 | 93 | 1014.0 |
| 20260505151003 | 6 | 304 | 1.6 | 3.2 | 0.00 | 0.03 | 0.03 | 93 | 1014.0 |
| 20260505150502 | 6 | 295 | 4.8 | 8.0 | 0.00 | 0.03 | 0.03 | 93 | 1014.0 |
| 20260505125003 | 6 | 312 | 1.6 | 6.4 | 0.00 | 0.00 | 0.00 | 90 | 1013.4 |
| 20260505124504 | 6 | 257 | 0.0 | 8.0 | 0.00 | 0.00 | 0.00 | 90 | 1013.3 |
| 20260505123503 | 6 | 329 | 3.2 | 1.6 | 0.00 | 0.00 | 0.00 | 90 | 1013.3 |
| 20260505123003 | 6 | 322 | 3.2 | 6.4 | 0.00 | 0.00 | 0.00 | 90 | 1013.4 |
| 20260505122502 | 6 | 307 | 4.8 | 9.7 | 0.00 | 0.00 | 0.00 | 89 | 1013.3 |
| 20260505121503 | 6 | 315 | 6.4 | 8.0 | 0.00 | 0.00 | 0.00 | 89 | 1013.1 |
| 20260505121003 | 6 | 286 | 8.0 | 11.3 | 0.00 | 0.00 | 0.00 | 89 | 1013.2 |
| 20260505120503 | 6 | 316 | 8.0 | 14.5 | 0.00 | 0.00 | 0.00 | 89 | 1013.2 |
| 20260505120003 | 6 | 316 | 8.0 | 14.5 | 0.00 | 0.00 | 0.00 | 88 | 1013.1 |
| 20260505115502 | 6 | 318 | 9.7 | 14.5 | 0.00 | 0.00 | 0.00 | 88 | 1013.1 |
| 20260505115003 | 6 | 317 | 8.0 | 16.1 | 0.00 | 0.00 | 0.00 | 88 | 1013.2 |
| 20260505114004 | 6 | 285 | 8.0 | 17.7 | 0.00 | 0.00 | 0.00 | 87 | 1013.1 |
| 20260505113503 | 6 | 300 | 8.0 | 12.9 | 0.00 | 0.00 | 0.00 | 87 | 1013.2 |
| 20260505113003 | 6 | 302 | 9.7 | 12.9 | 0.00 | 0.00 | 0.00 | 87 | 1013.2 |
| 20260505112503 | 6 | 313 | 11.3 | 12.9 | 0.00 | 0.00 | 0.00 | 87 | 1013.2 |
| 20260505112002 | 6 | 278 | 12.9 | 16.1 | 0.00 | 0.00 | 0.00 | 87 | 1013.1 |
| 20260505111502 | 6 | 275 | 12.9 | 19.3 | 0.00 | 0.00 | 0.00 | 87 | 1013.1 |
| 20260505101503 | 6 | 286 | 16.1 | 27.4 | 0.00 | 0.00 | 0.00 | 84 | 1013.2 |
| 20260505101003 | 6 | 297 | 16.1 | 27.4 | 0.00 | 0.00 | 0.00 | 84 | 1013.2 |
| 20260505100503 | 6 | 297 | 14.5 | 24.1 | 0.00 | 0.00 | 0.00 | 83 | 1013.2 |
| 20260505095503 | 6 | 291 | 14.5 | 17.7 | 0.00 | 0.00 | 0.00 | 83 | 1013.3 |
| 20260505094503 | 7 | 295 | 14.5 | 19.3 | 0.00 | 0.00 | 0.00 | 82 | 1013.4 |
| 20260505094003 | 7 | 300 | 16.1 | 29.0 | 0.00 | 0.00 | 0.00 | 82 | 1013.4 |
| 20260505093502 | 7 | 291 | 16.1 | 22.5 | 0.00 | 0.00 | 0.00 | 80 | 1013.4 |
| 20260505093004 | 7 | 290 | 16.1 | 19.3 | 0.00 | 0.00 | 0.00 | 80 | 1013.4 |
| 20260505092004 | 7 | 311 | 14.5 | 20.9 | 0.00 | 0.00 | 0.00 | 80 | 1013.5 |
| 20260505091502 | 7 | 312 | 12.9 | 22.5 | 0.00 | 0.00 | 0.00 | 80 | 1013.6 |
| 20260505091003 | 7 | 315 | 9.7 | 20.9 | 0.00 | 0.00 | 0.00 | 80 | 1013.6 |
| 20260505090003 | 7 | 313 | 8.0 | 12.9 | 0.00 | 0.00 | 0.00 | 80 | 1013.7 |
| 20260505085503 | 7 | 306 | 8.0 | 12.9 | 0.00 | 0.00 | 0.00 | 80 | 1013.8 |
| 20260505085002 | 7 | 305 | 9.7 | 14.5 | 0.00 | 0.00 | 0.00 | 80 | 1013.9 |
| 20260505084503 | 7 | 305 | 9.7 | 14.5 | 0.00 | 0.00 | 0.00 | 80 | 1014.0 |
| 20260505084003 | 7 | 306 | 9.7 | 19.3 | 0.00 | 0.00 | 0.00 | 79 | 1014.0 |
| 20260505083503 | 7 | 312 | 9.7 | 16.1 | 0.00 | 0.00 | 0.00 | 79 | 1014.0 |
| 20260505083003 | 7 | 310 | 8.0 | 17.7 | 0.00 | 0.00 | 0.00 | 78 | 1014.1 |
| 20260505082502 | 7 | 297 | 9.7 | 11.3 | 0.00 | 0.00 | 0.00 | 78 | 1014.1 |
| 20260505082003 | 7 | 289 | 11.3 | 14.5 | 0.00 | 0.00 | 0.00 | 78 | 1014.1 |
| 20260505081503 | 7 | 312 | 8.0 | 19.3 | 0.00 | 0.00 | 0.00 | 78 | 1014.1 |
| 20260505080503 | 8 | 294 | 9.7 | 8.0 | 0.00 | 0.00 | 0.00 | 77 | 1014.3 |
| 20260505080003 | 8 | 280 | 8.0 | 16.1 | 0.00 | 0.00 | 0.00 | 77 | 1014.1 |
| 20260505075503 | 8 | 293 | 8.0 | 14.5 | 0.00 | 0.00 | 0.00 | 76 | 1014.2 |
| 20260505075003 | 8 | 297 | 9.7 | 14.5 | 0.00 | 0.00 | 0.00 | 76 | 1014.2 |
| 20260505074502 | 8 | 288 | 11.3 | 12.9 | 0.00 | 0.00 | 0.00 | 76 | 1014.1 |
| 20260505074003 | 8 | 306 | 12.9 | 16.1 | 0.00 | 0.00 | 0.00 | 76 | 1014.1 |
| 20260505073502 | 8 | 308 | 12.9 | 16.1 | 0.00 | 0.00 | 0.00 | 76 | 1014.2 |
| 20260505073003 | 8 | 282 | 9.7 | 24.1 | 0.00 | 0.00 | 0.00 | 75 | 1014.2 |
| 20260505072003 | 8 | 303 | 9.7 | 20.9 | 0.00 | 0.00 | 0.00 | 75 | 1014.2 |
| 20260505071503 | 8 | 295 | 9.7 | 14.5 | 0.00 | 0.00 | 0.00 | 74 | 1014.2 |
| 20260505070004 | 8 | 273 | 11.3 | 24.1 | 0.00 | 0.00 | 0.00 | 73 | 1014.1 |
| 20260505065503 | 8 | 307 | 9.7 | 12.9 | 0.00 | 0.00 | 0.00 | 73 | 1014.1 |
| 20260505065003 | 8 | 283 | 8.0 | 17.7 | 0.00 | 0.00 | 0.00 | 73 | 1014.2 |
| 20260505064003 | 8 | 264 | 14.5 | 20.9 | 0.00 | 0.00 | 0.00 | 72 | 1014.2 |
| 20260505063503 | 8 | 268 | 16.1 | 22.5 | 0.00 | 0.00 | 0.00 | 72 | 1014.0 |
| 20260505062503 | 8 | 270 | 16.1 | 27.4 | 0.00 | 0.00 | 0.00 | 72 | 1014.0 |
| 20260505061503 | 8 | 279 | 12.9 | 22.5 | 0.00 | 0.00 | 0.00 | 72 | 1014.0 |
| 20260505061003 | 8 | 283 | 11.3 | 20.9 | 0.00 | 0.00 | 0.00 | 72 | 1014.0 |
| 20260505060504 | 8 | 290 | 12.9 | 12.9 | 0.00 | 0.00 | 0.00 | 72 | 1014.1 |
| 20260505055503 | 8 | 275 | 11.3 | 24.1 | 0.00 | 0.00 | 0.00 | 71 | 1014.1 |
| 20260505055003 | 8 | 261 | 12.9 | 20.9 | 0.00 | 0.00 | 0.00 | 71 | 1014.1 |
| 20260505054503 | 8 | 276 | 12.9 | 16.1 | 0.00 | 0.00 | 0.00 | 71 | 1014.2 |
| 20260505054003 | 8 | 290 | 8.0 | 4.8 | 0.00 | 0.00 | 0.00 | 70 | 1014.2 |
| 20260505053502 | 8 | 290 | 8.0 | 4.8 | 0.00 | 0.00 | 0.00 | 70 | 1014.1 |
| 20260505053003 | 8 | 282 | 11.3 | 11.3 | 0.00 | 0.00 | 0.00 | 70 | 1014.1 |
| 20260505052503 | 8 | 276 | 14.5 | 16.1 | 0.00 | 0.00 | 0.00 | 70 | 1014.1 |
| 20260505052002 | 8 | 290 | 12.9 | 19.3 | 0.00 | 0.00 | 0.00 | 71 | 1014.2 |
| 20260505051003 | 8 | 306 | 11.3 | 17.7 | 0.00 | 0.00 | 0.00 | 71 | 1014.2 |
| 20260505050503 | 8 | 306 | 12.9 | 35.4 | 0.00 | 0.00 | 0.00 | 72 | 1014.1 |
| 20260505041503 | 8 | 304 | 3.2 | 16.1 | 0.00 | 0.00 | 0.00 | 72 | 1013.9 |
| 20260505041003 | 8 | 307 | 1.6 | 11.3 | 0.00 | 0.00 | 0.00 | 72 | 1013.9 |
| 20260505040503 | 8 | 308 | 3.2 | 6.4 | 0.00 | 0.00 | 0.00 | 72 | 1013.9 |
| 20260505040004 | 8 | 271 | 4.8 | 6.4 | 0.00 | 0.00 | 0.00 | 73 | 1014.0 |
| 20260505035503 | 8 | 306 | 3.2 | 8.0 | 0.00 | 0.00 | 0.00 | 73 | 1013.9 |
| 20260505035003 | 8 | 287 | 4.8 | 9.7 | 0.00 | 0.00 | 0.00 | 73 | 1013.9 |
| 20260505034503 | 8 | 307 | 6.4 | 8.0 | 0.00 | 0.00 | 0.00 | 73 | 1013.9 |
| 20260505034003 | 8 | 276 | 8.0 | 9.7 | 0.00 | 0.00 | 0.00 | 72 | 1013.8 |
| 20260505033503 | 8 | 265 | 9.7 | 12.9 | 0.00 | 0.00 | 0.00 | 72 | 1013.8 |
| 20260505033004 | 8 | 270 | 11.3 | 16.1 | 0.00 | 0.00 | 0.00 | 73 | 1013.8 |
| 20260505032503 | 8 | 281 | 11.3 | 16.1 | 0.00 | 0.00 | 0.00 | 73 | 1013.7 |
| 20260505032003 | 8 | 295 | 12.9 | 16.1 | 0.00 | 0.00 | 0.00 | 72 | 1013.6 |
| 20260505031003 | 9 | 285 | 12.9 | 24.1 | 0.00 | 0.00 | 0.00 | 72 | 1013.4 |
| 20260505030503 | 9 | 294 | 14.5 | 19.3 | 0.00 | 0.00 | 0.00 | 72 | 1013.4 |
| 20260505030004 | 9 | 299 | 16.1 | 22.5 | 0.00 | 0.00 | 0.00 | 71 | 1013.4 |
| 20260505025503 | 9 | 302 | 16.1 | 25.7 | 0.00 | 0.00 | 0.00 | 71 | 1013.3 |
| 20260505025004 | 9 | 310 | 14.5 | 24.1 | 0.00 | 0.00 | 0.00 | 71 | 1013.3 |
| 20260505024503 | 9 | 311 | 14.5 | 24.1 | 0.00 | 0.00 | 0.00 | 70 | 1013.3 |
| 20260505024003 | 9 | 301 | 14.5 | 20.9 | 0.00 | 0.00 | 0.00 | 70 | 1013.3 |
| 20260505023503 | 10 | 295 | 12.9 | 27.4 | 0.00 | 0.00 | 0.00 | 71 | 1013.4 |
| 20260505023003 | 10 | 303 | 11.3 | 17.7 | 0.00 | 0.00 | 0.00 | 71 | 1013.4 |
| 20260505022503 | 10 | 308 | 11.3 | 17.7 | 0.00 | 0.00 | 0.00 | 71 | 1013.4 |
| 20260505022003 | 10 | 298 | 12.9 | 16.1 | 0.00 | 0.00 | 0.00 | 70 | 1013.4 |
| 20260505021503 | 10 | 293 | 12.9 | 20.9 | 0.00 | 0.00 | 0.00 | 70 | 1013.4 |
| 20260505021003 | 10 | 286 | 12.9 | 19.3 | 0.00 | 0.00 | 0.00 | 70 | 1013.5 |
| 20260505020504 | 10 | 300 | 12.9 | 19.3 | 0.00 | 0.00 | 0.00 | 69 | 1013.3 |
| 20260505020003 | 10 | 289 | 12.9 | 14.5 | 0.00 | 0.00 | 0.00 | 69 | 1013.4 |
| 20260505015504 | 10 | 308 | 14.5 | 20.9 | 0.00 | 0.00 | 0.00 | 69 | 1013.4 |
| 20260505015003 | 10 | 294 | 12.9 | 20.9 | 0.00 | 0.00 | 0.00 | 69 | 1013.3 |
| 20260505014503 | 10 | 307 | 11.3 | 20.9 | 0.00 | 0.00 | 0.00 | 69 | 1013.4 |
| 20260505014004 | 10 | 304 | 12.9 | 17.7 | 0.00 | 0.00 | 0.00 | 69 | 1013.4 |
| 20260505013503 | 10 | 320 | 11.3 | 20.9 | 0.00 | 0.00 | 0.00 | 68 | 1013.4 |
| 20260505013004 | 10 | 315 | 8.0 | 19.3 | 0.00 | 0.00 | 0.00 | 67 | 1013.3 |
| 20260505011004 | 11 | 316 | 12.9 | 22.5 | 0.00 | 0.00 | 0.00 | 64 | 1013.2 |
| 20260505010503 | 11 | 274 | 12.9 | 20.9 | 0.00 | 0.00 | 0.00 | 65 | 1013.3 |
| 20260505005503 | 11 | 302 | 14.5 | 20.9 | 0.00 | 0.00 | 0.00 | 62 | 1013.4 |
| 20260505005004 | 11 | 308 | 16.1 | 22.5 | 0.00 | 0.00 | 0.00 | 65 | 1013.4 |
| 20260505004503 | 11 | 313 | 16.1 | 25.7 | 0.00 | 0.00 | 0.00 | 67 | 1013.6 |
| 20260505004003 | 11 | 314 | 14.5 | 25.7 | 0.00 | 0.00 | 0.00 | 67 | 1013.6 |
| 20260505003503 | 11 | 320 | 16.1 | 27.4 | 0.00 | 0.00 | 0.00 | 66 | 1013.6 |
| 20260505002503 | 11 | 315 | 16.1 | 27.4 | 0.00 | 0.00 | 0.00 | 65 | 1013.6 |
| 20260505002003 | 11 | 290 | 16.1 | 25.7 | 0.00 | 0.00 | 0.00 | 65 | 1013.6 |
| 20260505001503 | 11 | 313 | 14.5 | 29.0 | 0.00 | 0.00 | 0.00 | 65 | 1013.4 |
| 20260505001004 | 11 | 297 | 12.9 | 20.9 | 0.00 | 0.00 | 0.00 | 63 | 1013.5 |